This is the latest recevied weather packets stored in our database for station/object KE0TNI-13. If no packets are shown the sender has not sent any weather packets the latest 10 day(s).
| Time | Temp. | Humidity | Pressure | Rain* | Wind** | Luminosity | Snow |
|---|---|---|---|---|---|---|---|
| 1777680616 | 6.67° C | 38% | 1023.2 hPa | 0 mm | - | 107 W/m² | - |
| 1777680315 | 6.11° C | 38% | 1023.3 hPa | 0 mm | - | 157 W/m² | - |
| 1777680011 | 6.67° C | 38% | 1023.3 hPa | 0 mm | - | 109 W/m² | - |
| 1777679707 | 6.67° C | 38% | 1023.2 hPa | 0 mm | - | 103 W/m² | - |
| 1777679402 | 7.22° C | 45% | 1023 hPa | 0 mm | - | 108 W/m² | - |
| 1777679098 | 8.89° C | 41% | 1023.5 hPa | 0 mm | - | 142 W/m² | - |
| 1777678797 | 8.89° C | 41% | 1023 hPa | 0 mm | - | 142 W/m² | - |
| 1777678495 | 8.89° C | 41% | 1023 hPa | 0 mm | - | 142 W/m² | - |
| 1777678190 | 8.89° C | 33% | 1023.2 hPa | 0 mm | - | 484 W/m² | - |
| 1777677887 | 9.44° C | 36% | 1023 hPa | 0 mm | - | 261 W/m² | - |
| 1777677585 | 8.89° C | 35% | 1022.8 hPa | 0 mm | - | 502 W/m² | - |
| 1777677283 | 8.33° C | 35% | 1022.6 hPa | 0 mm | - | 543 W/m² | - |
| 1777676981 | 8.33° C | 40% | 1022.6 hPa | 0 mm | - | 465 W/m² | - |
| 1777676680 | 7.78° C | 40% | 1022.6 hPa | 0 mm | - | 374 W/m² | - |
| 1777676376 | 7.22° C | 41% | 1022.6 hPa | 0 mm | - | 144 W/m² | - |
| 1777676074 | 6.67° C | 43% | 1022.6 hPa | 0 mm | - | 525 W/m² | - |
| 1777675770 | 6.67° C | 43% | 1022.8 hPa | 0 mm | - | 197 W/m² | - |
| 1777675467 | 6.11° C | 46% | 1022.6 hPa | 0 mm | - | 193 W/m² | - |
| 1777675164 | 6.11° C | 47% | 1022.7 hPa | 0 mm | - | 200 W/m² | - |
| 1777674861 | 6.11° C | 42% | 1022.6 hPa | 0 mm | - | 146 W/m² | - |
| 1777674557 | 6.11° C | 46% | 1022.6 hPa | 0 mm | - | 102 W/m² | - |
| 1777674255 | 7.22° C | 42% | 1022.6 hPa | 0 mm | - | 117 W/m² | - |
| 1777673950 | 8.33° C | 46% | 1022.8 hPa | 0 mm | - | 156 W/m² | - |
| 1777673648 | 8.33° C | 43% | 1022.6 hPa | 0 mm | - | 486 W/m² | - |
| 1777673345 | 7.78° C | 44% | 1022.7 hPa | 0 mm | - | 801 W/m² | - |
* Rain latest hour (hover to see other rain measurements)
** Current wind speed in m/s (hover to see current wind gust speed)